Flag for Moldova Weather past 2 weeks in Chisinau, Moldova

72 °F

Passing clouds.

Feels Like: 77 °F
Forecast: 53 / 74 °F
Wind: 13 mph from South

Location: Chisinau International Airport

Current Time: Oct 4, 2015 at 12:43:30 PM

Latest Report: Oct 4, 2015 at 12:00 PM

Visibility: N/A

Pressure: 30.21 "Hg

Humidity: 41%

Dew point: 46 °F

Location of ChisinauLocation

Historic Weather in Chisinau — Graph


Chisinau temperature yesterday

Maximum temperature yesterday: 75 °F (at 4:00 PM)
Minimum temperature yesterday: 37 °F (at 5:30 AM)
Average temperature yesterday: 55 °F

Past Weeks' High & Low Weather Summary

High88 °F (Sep 19, 2:30 PM)94% (Sep 24, 10:30 PM)30.42 "Hg (Sep 24, 10:30 PM)
Low37 °F (Oct 3, 5:30 AM)14% (Sep 20, 4:30 PM)29.77 "Hg (Sep 21, 4:00 AM)
Average64 °F58%30.08 "Hg
* Reported Sep 19 11:00 AM — Oct 4 11:30 AM, Chisinau, Weather by CustomWeather, © 2015

Note: Actual official high and low records may vary slightly from our data, if they occured in-between our weather recording intervals... More about our weather records


Chisinau weather history for previous 24 hours

Time TempWeatherWind HumidityBarometerVisibility
11:30 AM
Sun, Oct 4
72 °FPassing clouds.10 mph44%30.21 "HgN/A
11:00 AM68 °FSunny.12 mph49%30.21 "Hg10 mi
10:30 AM66 °FPassing clouds.9 mph52%30.21 "HgN/A
10:00 AM63 °FPassing clouds.5 mph59%30.21 "HgN/A
9:30 AM57 °FPassing clouds.5 mph67%30.21 "HgN/A
9:00 AM54 °FSunny.1 mph72%30.21 "Hg10 mi
8:30 AM50 °FSunny.No wind71%30.21 "Hg10 mi
8:00 AM45 °FClear.No wind81%30.21 "Hg10 mi
6:30 AM46 °FClear.2 mph76%30.21 "Hg10 mi
6:00 AM45 °FClear.3 mph81%30.21 "Hg10 mi
5:30 AM46 °FClear.2 mph76%30.21 "Hg10 mi
5:00 AM46 °FClear.2 mph76%30.21 "Hg10 mi
4:30 AM45 °FClear.3 mph81%30.21 "Hg10 mi
4:00 AM45 °FClear.1 mph81%30.21 "Hg10 mi
3:30 AM46 °FClear.No wind76%30.24 "Hg10 mi
3:00 AM46 °FClear.No wind76%30.24 "Hg10 mi
2:30 AM48 °FClear.2 mph71%30.24 "Hg10 mi
2:00 AM50 °FClear.No wind58%30.24 "Hg10 mi
1:30 AM50 °FClear.No wind62%30.24 "Hg10 mi
1:00 AM50 °FClear.No wind67%30.24 "Hg10 mi
12:30 AM50 °FClear.No wind67%30.24 "Hg10 mi
12:00 AM50 °FClear.No wind62%30.24 "Hg10 mi
11:30 PM
Sat, Oct 3
52 °FClear.No wind50%30.21 "Hg10 mi
11:00 PM54 °FClear.No wind51%30.21 "Hg10 mi
10:30 PM54 °FClear.2 mph51%30.21 "Hg10 mi
10:00 PM59 °FClear.2 mph39%30.21 "Hg10 mi
9:30 PM59 °FClear.3 mph39%30.21 "Hg10 mi
9:00 PM61 °FClear.5 mph36%30.21 "Hg10 mi
8:30 PM61 °FClear.5 mph36%30.21 "Hg10 mi
8:00 PM63 °FClear.5 mph34%30.21 "Hg10 mi
7:30 PM66 °FSunny.3 mph28%30.21 "Hg10 mi
7:00 PM70 °FSunny.3 mph25%30.21 "Hg10 mi
6:30 PM72 °FSunny.3 mph23%30.21 "Hg10 mi
6:00 PM72 °FSunny.2 mph25%30.21 "Hg10 mi
5:30 PM75 °FPassing clouds.3 mph18%30.21 "HgN/A
5:00 PM75 °FPassing clouds.5 mph18%30.21 "HgN/A
4:30 PM75 °FPassing clouds.3 mph18%30.21 "HgN/A
4:00 PM75 °FSunny.2 mph19%30.24 "Hg10 mi
3:30 PM73 °FPassing clouds.5 mph20%30.24 "HgN/A
3:00 PM73 °FSunny.5 mph22%30.24 "Hg10 mi
2:30 PM72 °FSunny.3 mph23%30.24 "Hg10 mi
2:00 PM70 °FSunny.3 mph27%30.24 "Hg10 mi
1:30 PM68 °FPassing clouds.5 mph28%30.27 "HgN/A
1:00 PM68 °FSunny.3 mph30%30.27 "Hg10 mi
12:30 PM64 °FPassing clouds.5 mph32%30.27 "HgN/A
12:00 PM64 °FPassing clouds.5 mph40%30.30 "HgN/A
Weather by CustomWeather, © 2015

See weather overviewHow to use our weather pages